Hourly Data Report for October 04, 2017

All times are specified in Local Standard Time (LST). Add 1 hour to adjust for Daylight Saving Time where and when it is observed.

POND INLET A
NUNAVUT

72°41'22.000" N
77°58'08.000" W
61.60 m
2403206
71095
YIO

Download Data

Hourly Data (October 2017)
Hourly Data Report for October 4, 2017
Temp Definition
°C
Dew Point Temp Definition
°C
Rel Hum Definition
%
Wind Dir Definition
10's deg

Wind Spd Definition
km/h
Visibility Definition
km
Stn Press Definition
kPa
Hmdx Definition


Wind Chill Definition


Weather Definition


TIME
00:00 Legend Double Dagger -3.0 -3.6 96 25 18 4.0 97.53   -9 Snow
01:00 Legend Double Dagger -3.4 -4.0 96 25 21 2.4 97.54   -10 Snow
02:00 Legend Double Dagger -3.5 -4.1 96 25 24 2.4 97.55   -10 Snow
03:00 Legend Double Dagger -3.6 -4.2 96 25 26 4.0 97.54   -11 Snow
04:00 Legend Double Dagger -3.5 -4.1 96 26 22 11.3 97.56   -10 Snow
05:00 Legend Double Dagger -4.1 -4.8 95 22 11 1.2 97.60   -9 Snow
06:00 Legend Double Dagger -4.4 -4.9 96 22 15 1.2 97.64   -10 Snow
07:00 Legend Double Dagger -4.7 -5.2 96 21 9 0.8 97.69   -9 Moderate Snow
08:00 Legend Double Dagger -4.7 -5.4 95 22 11 1.0 97.73   -9 Snow
09:00 Legend Double Dagger -4.9 -5.6 95 22 13 1.2 97.75   -10 Snow
10:00 Legend Double Dagger -4.6 -5.3 95 23 11 1.2 97.74   -9 Snow
11:00 Legend Double Dagger -4.8 -5.6 94 22 13 2.0 97.77   -10 Snow
12:00 Legend Double Dagger -4.4 -5.5 92 22 15 2.4 97.76   -10 Snow
13:00 Legend Double Dagger -4.0 -5.3 91 24 17 6.4 97.80   -10 Snow
14:00 Legend Double Dagger -4.4 -5.7 91 20 11 2.8 97.80   -9 Snow
15:00 Legend Double Dagger -4.8 -5.9 92 20 13 2.8 97.86   -10 Snow
16:00 Legend Double Dagger -5.0 -6.0 93 19 9 1.2 97.91   -9 Snow
17:00 Legend Double Dagger -5.2 -6.2 93 20 13 2.4 97.96   -10 Snow
18:00 Legend Double Dagger -5.2 -6.2 93 17 9 2.4 98.03   -9 Snow
19:00 Legend Double Dagger -5.3 -6.3 93 19 11 2.8 98.12   -10 Snow
20:00 Legend Double Dagger -5.3 -6.3 93 16 13 8.1 98.20   -10 Snow
21:00 Legend Double Dagger -5.2 -6.2 93 18 13 4.8 98.28   -10 Snow
22:00 Legend Double Dagger -5.4 -6.4 93 16 13 6.4 98.37   -11 Snow
23:00 Legend Double Dagger -5.2 -6.2 93 20 11 2.8 98.44   -10 Snow

Notes on Data Quality.

Legend

  • E = Estimated
  • M = Missing
  • NA = Not Available
  • ‡ = Partner data that is not subject to review by the National Climate Archives
Date modified: